Time,TemperatureF,DewpointF,PressureIn,WindDirection,WindDirectionDegrees,WindSpeedMPH,WindSpeedGustMPH,Humidity,HourlyPrecipIn,Conditions,Clouds,dailyrainin,SoftwareType,DateUTC
2013-08-10 10:43:00,80.0,59.0,29.92,SE,133,5.0,8.0,49,0.00,,,0.12,,2013-08-10 17:43:00,
2013-08-10 10:52:00,80.0,61.0,29.93,SE,132,4.0,7.0,53,0.00,,,0.12,,2013-08-10 17:52:00,
2013-08-10 11:01:00,81.0,60.0,29.93,SE,129,6.0,8.0,49,0.00,,,0.12,,2013-08-10 18:01:00,
2013-08-10 11:11:00,82.0,61.0,29.93,SE,130,8.0,13.0,49,0.00,,,0.12,,2013-08-10 18:11:00,
2013-08-10 11:32:00,82.0,57.0,29.93,SE,133,10.0,13.0,42,0.00,,,0.12,,2013-08-10 18:32:00,
2013-08-10 11:43:00,83.0,55.0,29.93,ESE,120,8.0,10.0,39,0.00,,,0.12,,2013-08-10 18:43:00,
2013-08-10 11:52:00,83.0,56.0,29.92,East,99,5.0,10.0,40,0.00,,,0.12,,2013-08-10 18:52:00,
2013-08-10 12:01:00,84.0,56.0,29.92,SSE,159,3.0,8.0,38,0.00,,,0.12,,2013-08-10 19:01:00,
2013-08-10 12:11:00,85.0,55.0,29.92,ESE,107,7.0,13.0,36,0.00,,,0.12,,2013-08-10 19:11:00,
2013-08-10 12:32:00,85.0,55.0,29.92,ENE,76,3.0,9.0,36,0.00,,,0.12,,2013-08-10 19:32:00,
2013-08-10 12:44:00,86.0,55.0,29.92,NE,48,4.0,10.0,35,0.00,,,0.12,,2013-08-10 19:44:00,
2013-08-10 12:53:00,86.0,54.0,29.92,NW,304,2.0,10.0,34,0.00,,,0.12,,2013-08-10 19:53:00,
2013-08-10 13:33:00,88.0,54.0,29.91,ESE,116,3.0,9.0,32,0.00,,,0.12,,2013-08-10 20:33:00,
2013-08-10 13:43:00,88.0,58.0,29.90,SSE,151,5.0,14.0,36,0.00,,,0.12,,2013-08-10 20:43:00,
2013-08-10 13:52:00,89.0,56.0,29.90,SE,131,4.0,15.0,33,0.00,,,0.12,,2013-08-10 20:52:00,
2013-08-10 14:01:00,89.0,55.0,29.89,SE,130,5.0,10.0,32,0.00,,,0.12,,2013-08-10 21:01:00,
2013-08-10 14:11:00,89.0,54.0,29.89,ESE,117,2.0,10.0,30,0.00,,,0.12,,2013-08-10 21:11:00,
2013-08-10 14:32:00,90.0,53.0,29.88,SE,134,6.0,9.0,29,0.00,,,0.12,,2013-08-10 21:32:00,
2013-08-10 14:42:00,90.0,53.0,29.88,East,94,4.0,9.0,29,0.00,,,0.12,,2013-08-10 21:42:00,
2013-08-10 14:52:00,91.0,54.0,29.88,East,96,4.0,9.0,29,0.00,,,0.12,,2013-08-10 21:52:00,
2013-08-10 15:01:00,90.0,52.0,29.87,East,96,3.0,9.0,28,0.00,,,0.12,,2013-08-10 22:01:00,
2013-08-10 15:52:00,92.0,58.0,29.85,SSE,156,4.0,6.0,32,0.00,,,0.12,,2013-08-10 22:52:00,
2013-08-10 16:01:00,92.0,56.0,29.85,SSE,150,1.0,6.0,30,0.00,,,0.12,,2013-08-10 23:01:00,
2013-08-10 16:32:00,93.0,56.0,29.83,SE,144,3.0,5.0,29,0.00,,,0.12,,2013-08-10 23:32:00,
2013-08-10 16:53:00,92.0,54.0,29.82,SE,132,6.0,8.0,28,0.00,,,0.12,,2013-08-10 23:53:00,
2013-08-10 17:01:00,92.0,54.0,29.82,SSE,156,3.0,8.0,28,0.00,,,0.12,,2013-08-11 00:01:00,
2013-08-10 17:32:00,93.0,53.0,29.82,SSE,164,2.0,7.0,26,0.00,,,0.12,,2013-08-11 00:32:00,
2013-08-10 17:42:00,93.0,52.0,29.81,ESE,116,1.0,6.0,25,0.00,,,0.12,,2013-08-11 00:42:00,
2013-08-10 17:52:00,93.0,51.0,29.81,East,101,1.0,5.0,24,0.00,,,0.12,,2013-08-11 00:52:00,
2013-08-10 18:01:00,91.0,56.0,29.81,South,170,4.0,9.0,31,0.00,,,0.12,,2013-08-11 01:01:00,
2013-08-10 18:11:00,91.0,56.0,29.81,SE,137,0.0,7.0,31,0.00,,,0.12,,2013-08-11 01:11:00,
2013-08-10 18:32:00,91.0,57.0,29.81,West,275,0.0,3.0,32,0.00,,,0.12,,2013-08-11 01:32:00,
2013-08-10 18:42:00,90.0,58.0,29.81,West,262,0.0,2.0,34,0.00,,,0.12,,2013-08-11 01:42:00,
2013-08-10 18:53:00,89.0,55.0,29.81,WSW,254,0.0,2.0,32,0.00,,,0.12,,2013-08-11 01:53:00,
2013-08-10 19:02:00,88.0,56.0,29.81,WSW,254,0.0,0.0,34,0.00,,,0.12,,2013-08-11 02:02:00,
2013-08-10 19:32:00,87.0,56.0,29.81,WSW,254,1.0,2.0,35,0.00,,,0.12,,2013-08-11 02:32:00,
2013-08-10 19:43:00,86.0,56.0,29.81,West,259,1.0,3.0,36,0.00,,,0.12,,2013-08-11 02:43:00,
2013-08-10 19:53:00,86.0,55.0,29.81,SSE,163,0.0,3.0,35,0.00,,,0.12,,2013-08-11 02:53:00,
2013-08-10 20:02:00,87.0,53.0,29.82,SSE,154,3.0,7.0,31,0.00,,,0.12,,2013-08-11 03:02:00,
2013-08-10 20:22:00,87.0,53.0,29.82,SSW,198,1.0,5.0,31,0.00,,,0.12,,2013-08-11 03:22:00,
2013-08-10 20:33:00,87.0,53.0,29.83,NW,307,2.0,3.0,31,0.00,,,0.12,,2013-08-11 03:33:00,
2013-08-10 20:52:00,86.0,54.0,29.83,West,273,3.0,5.0,33,0.00,,,0.12,,2013-08-11 03:52:00,
2013-08-10 21:01:00,86.0,52.0,29.83,NW,313,6.0,8.0,31,0.00,,,0.12,,2013-08-11 04:01:00,
2013-08-10 21:32:00,87.0,52.0,29.80,NW,323,5.0,6.0,30,0.00,,,0.12,,2013-08-11 04:32:00,
2013-08-10 21:42:00,87.0,52.0,29.81,NW,309,3.0,9.0,30,0.00,,,0.12,,2013-08-11 04:42:00,
2013-08-10 21:53:00,86.0,52.0,29.81,NNW,342,7.0,10.0,31,0.00,,,0.12,,2013-08-11 04:53:00,
2013-08-10 22:02:00,85.0,54.0,29.81,North,5,4.0,11.0,35,0.00,,,0.12,,2013-08-11 05:02:00,
2013-08-10 22:33:00,84.0,57.0,29.81,North,355,3.0,13.0,40,0.00,,,0.12,,2013-08-11 05:33:00,
2013-08-10 22:44:00,79.0,55.0,29.91,South,169,12.0,28.0,44,0.00,,,0.12,,2013-08-11 05:44:00,
2013-08-10 22:52:00,79.0,55.0,29.91,South,169,12.0,28.0,44,0.00,,,0.12,,2013-08-11 05:52:00,
2013-08-10 23:12:00,79.0,55.0,29.91,South,169,12.0,28.0,44,0.00,,,0.12,,2013-08-11 06:12:00,
2013-08-10 23:55:00,70.0,57.0,29.96,WNW,290,6.0,17.0,64,0.50,,,0.67,,2013-08-11 06:55:00,